sat.trackr.live / text

‹ back to catalog

STARLINK-2604

NORAD 48374 · 2021-038X

PAYLOAD ACTIVE UNKNOWN

§ Identity

Operator
Country
US
Launch date
2021-05-04
Launch site
AFETR
Launch vehicle
Mass (kg)
RCS (m²)

Purposes: comms

External: N2YO · Heavens-Above · Gunter

§ Orbital elements

Epoch: 2026-09-10T06:00:02.000160Z

Period
94.01 min
Inclination
53.1571°
Eccentricity
0.0001102
Mean motion
15.31689469 rev/d
Perigee alt
470.0 km
Apogee alt
471.5 km
Semi-major
6,848.9 km
B*
8.4041e-4
RAAN
208.8911°
Arg perigee
104.4656°
Mean anomaly
249.6633°
Rev number
586

§ Raw data

STARLINK-26041 48374U 21038X   26253.25002315  .00025795  00000+0  84041-3 0  99932 48374  53.1571 208.8911 0001102 104.4656 249.6633 15.31689469  5863

JSON: /api/v1/satellites/48374 · /tle

For live sub-satellite position, see the globe view (requires WebGL).

§ Visibility from observer

Set your observer location to see the next 7 days of passes ≥ 10°. The values pass through the URL so the page stays shareable.

No JS? Fill the form by hand. The geolocation button needs JavaScript.